IBE6464 SEQM-SEGU

Flight info

Callsign IBE6464
Flight time 0h 32m
Altitude 22000
Route TEMOX3A TEMOX
Aircraft A346/H-SDE2E3FGHIJ3J4J5M1RWXY/LB1D1

Departure

Time 2026-04-20 19:25
Airport Mariscal Sucre International Airport (SEQM)

Arrival

Time 2026-04-20 19:57
Airport José Joaquín de Olmedo International Airport (SEGU)
Time Latitude Longitude Altitude Speed Heading
2026-04-20 19:02 -0.12499 -78.35911 7848 ft 0 kts 266°
2026-04-20 19:13 -0.12499 -78.35902 7851 ft 4 kts 266°
2026-04-20 19:14 -0.12498 -78.35877 7851 ft 3 kts 266°
2026-04-20 19:14 -0.12493 -78.35855 7851 ft 4 kts 241°
2026-04-20 19:14 -0.12481 -78.35842 7851 ft 4 kts 203°
2026-04-20 19:14 -0.12458 -78.35838 7851 ft 4 kts 179°
2026-04-20 19:15 -0.12432 -78.35839 7851 ft 2 kts 179°
2026-04-20 19:15 -0.12425 -78.35839 7851 ft 0 kts 179°
2026-04-20 19:17 -0.12426 -78.35839 7851 ft 0 kts 179°
2026-04-20 19:18 -0.12432 -78.35839 7851 ft 2 kts 179°
2026-04-20 19:18 -0.12452 -78.35839 7846 ft 4 kts 179°
2026-04-20 19:18 -0.12485 -78.35838 7851 ft 6 kts 177°
2026-04-20 19:18 -0.12530 -78.35835 7851 ft 7 kts 177°
2026-04-20 19:19 -0.12585 -78.35833 7851 ft 8 kts 177°
2026-04-20 19:19 -0.12648 -78.35829 7848 ft 10 kts 176°
2026-04-20 19:19 -0.12690 -78.35791 7853 ft 8 kts 106°
2026-04-20 19:19 -0.12694 -78.35742 7854 ft 6 kts 90°
2026-04-20 19:20 -0.12692 -78.35692 7858 ft 7 kts 88°
2026-04-20 19:20 -0.12690 -78.35646 7865 ft 9 kts 89°
2026-04-20 19:20 -0.12758 -78.35602 7872 ft 19 kts 174°
2026-04-20 19:20 -0.12924 -78.35592 7878 ft 24 kts 177°
2026-04-20 19:21 -0.13083 -78.35584 7885 ft 21 kts 177°
2026-04-20 19:21 -0.13218 -78.35578 7891 ft 21 kts 178°
2026-04-20 19:21 -0.13390 -78.35572 7894 ft 25 kts 178°
2026-04-20 19:21 -0.13556 -78.35565 7898 ft 23 kts 177°
2026-04-20 19:22 -0.13704 -78.35559 7904 ft 20 kts 178°
2026-04-20 19:22 -0.13842 -78.35554 7906 ft 20 kts 178°
2026-04-20 19:22 -0.13975 -78.35548 7913 ft 18 kts 177°
2026-04-20 19:22 -0.14092 -78.35543 7916 ft 15 kts 178°
2026-04-20 19:23 -0.14190 -78.35536 7922 ft 14 kts 167°
2026-04-20 19:23 -0.14255 -78.35469 7925 ft 16 kts 97°
2026-04-20 19:23 -0.14203 -78.35374 7926 ft 17 kts
2026-04-20 19:23 -0.14186 -78.35373 7920 ft 2 kts
2026-04-20 19:24 -0.14153 -78.35373 7923 ft 22 kts 358°
2026-04-20 19:24 -0.13786 -78.35387 7904 ft 82 kts 358°
2026-04-20 19:24 -0.13041 -78.35417 7886 ft 131 kts 358°
2026-04-20 19:24 -0.12365 -78.35444 7853 ft 162 kts 358°
2026-04-20 19:25 -0.11125 -78.35499 7921 ft 189 kts 357°
2026-04-20 19:25 -0.09780 -78.35562 8349 ft 193 kts 357°
2026-04-20 19:25 -0.08441 -78.35630 8814 ft 197 kts 357°
2026-04-20 19:25 -0.07068 -78.35775 9363 ft 199 kts 348°
2026-04-20 19:26 -0.05731 -78.36195 9760 ft 206 kts 341°
2026-04-20 19:26 -0.04335 -78.36702 10017 ft 218 kts 341°
2026-04-20 19:26 -0.02868 -78.37241 10273 ft 231 kts 340°
2026-04-20 19:26 -0.01319 -78.37810 10544 ft 244 kts 340°
2026-04-20 19:27 0.00324 -78.38408 10799 ft 258 kts 340°
2026-04-20 19:27 0.02064 -78.39041 11038 ft 274 kts 340°
2026-04-20 19:27 0.03910 -78.39713 11339 ft 290 kts 340°
2026-04-20 19:27 0.05861 -78.40423 11665 ft 307 kts 340°
2026-04-20 19:28 0.07918 -78.41182 11968 ft 324 kts 337°
2026-04-20 19:28 0.09832 -78.42452 12248 ft 341 kts 314°
2026-04-20 19:28 0.11178 -78.44459 12568 ft 358 kts 294°
2026-04-20 19:28 0.12081 -78.46839 12919 ft 374 kts 290°
2026-04-20 19:29 0.12980 -78.49332 13310 ft 387 kts 290°
2026-04-20 19:29 0.13916 -78.51878 13981 ft 391 kts 290°
2026-04-20 19:29 0.14831 -78.54451 14727 ft 394 kts 285°
2026-04-20 19:29 0.15085 -78.57192 15368 ft 400 kts 266°
2026-04-20 19:30 0.14419 -78.59900 16022 ft 405 kts 247°
2026-04-20 19:30 0.12892 -78.62277 16659 ft 411 kts 229°
2026-04-20 19:30 0.10646 -78.64050 17274 ft 417 kts 210°
2026-04-20 19:30 0.07897 -78.65002 17851 ft 424 kts 190°
2026-04-20 19:31 0.04934 -78.65072 18446 ft 428 kts 179°
2026-04-20 19:31 0.01962 -78.65201 19022 ft 430 kts 191°
2026-04-20 19:31 -0.00850 -78.66205 19520 ft 431 kts 212°
2026-04-20 19:31 -0.03253 -78.67978 20146 ft 430 kts 220°
2026-04-20 19:32 -0.05564 -78.69821 20714 ft 432 kts 220°
2026-04-20 19:32 -0.07955 -78.71740 21206 ft 436 kts 220°
2026-04-20 19:32 -0.10296 -78.73629 21692 ft 440 kts 220°
2026-04-20 19:32 -0.12680 -78.75557 22151 ft 443 kts 220°
2026-04-20 19:33 -0.15080 -78.77501 22300 ft 444 kts 220°
2026-04-20 19:33 -0.17475 -78.79442 22297 ft 443 kts 220°
2026-04-20 19:33 -0.19871 -78.81384 22298 ft 443 kts 220°
2026-04-20 19:33 -0.22262 -78.83324 22301 ft 443 kts 220°
2026-04-20 19:34 -0.24653 -78.85263 22299 ft 443 kts 220°
2026-04-20 19:34 -0.27047 -78.87205 22303 ft 443 kts 220°
2026-04-20 19:34 -0.29441 -78.89148 22307 ft 443 kts 220°
2026-04-20 19:34 -0.31834 -78.91090 22310 ft 443 kts 220°
2026-04-20 19:35 -0.34226 -78.93030 22311 ft 443 kts 220°
2026-04-20 19:35 -0.36623 -78.94974 22310 ft 443 kts 220°
2026-04-20 19:35 -0.39014 -78.96914 22311 ft 443 kts 220°
2026-04-20 19:35 -0.41412 -78.98859 22310 ft 443 kts 220°
2026-04-20 19:36 -0.43805 -79.00801 22311 ft 443 kts 220°
2026-04-20 19:36 -0.46197 -79.02743 22308 ft 443 kts 220°
2026-04-20 19:36 -0.48589 -79.04684 22313 ft 443 kts 220°
2026-04-20 19:36 -0.50981 -79.06626 22316 ft 443 kts 220°
2026-04-20 19:37 -0.53372 -79.08567 22317 ft 443 kts 220°
2026-04-20 19:37 -0.55785 -79.10495 22318 ft 444 kts 218°
2026-04-20 19:37 -0.58317 -79.12263 22312 ft 444 kts 213°
2026-04-20 19:37 -0.60981 -79.13828 22313 ft 445 kts 209°
2026-04-20 19:38 -0.63759 -79.15200 22314 ft 445 kts 206°
2026-04-20 19:38 -0.66528 -79.16493 22311 ft 445 kts 206°
2026-04-20 19:38 -0.69377 -79.17809 22310 ft 445 kts 206°
2026-04-20 19:38 -0.72156 -79.19093 22312 ft 445 kts 206°
2026-04-20 19:39 -0.74970 -79.20395 22311 ft 445 kts 206°
2026-04-20 19:39 -0.77781 -79.21699 22310 ft 446 kts 206°
2026-04-20 19:39 -0.80592 -79.23003 22311 ft 446 kts 206°
2026-04-20 19:39 -0.83403 -79.24309 22311 ft 446 kts 206°
2026-04-20 19:40 -0.86214 -79.25615 22308 ft 446 kts 206°
2026-04-20 19:40 -0.89013 -79.26916 22141 ft 440 kts 206°
2026-04-20 19:40 -0.91783 -79.28201 21416 ft 440 kts 206°
2026-04-20 19:40 -0.94566 -79.29492 20728 ft 440 kts 206°
2026-04-20 19:41 -0.97327 -79.30773 20162 ft 436 kts 206°
2026-04-20 19:41 -1.00053 -79.32039 19581 ft 432 kts 206°
2026-04-20 19:41 -1.02776 -79.33303 18996 ft 429 kts 206°
2026-04-20 19:41 -1.05470 -79.34555 18411 ft 425 kts 206°
2026-04-20 19:42 -1.08144 -79.35798 17841 ft 422 kts 206°
2026-04-20 19:42 -1.10792 -79.37029 17275 ft 418 kts 206°
2026-04-20 19:42 -1.13422 -79.38253 16715 ft 415 kts 206°
2026-04-20 19:42 -1.16033 -79.39467 16155 ft 412 kts 206°
2026-04-20 19:43 -1.18619 -79.40670 15599 ft 408 kts 206°
2026-04-20 19:43 -1.21186 -79.41864 15057 ft 405 kts 206°
2026-04-20 19:43 -1.23731 -79.43048 14493 ft 402 kts 206°
2026-04-20 19:43 -1.26254 -79.44221 13946 ft 399 kts 206°
2026-04-20 19:44 -1.28763 -79.45389 13389 ft 396 kts 205°
2026-04-20 19:44 -1.31262 -79.46552 12824 ft 393 kts 205°
2026-04-20 19:44 -1.33749 -79.47708 12260 ft 390 kts 205°
2026-04-20 19:44 -1.36196 -79.48847 11692 ft 387 kts 205°
2026-04-20 19:45 -1.38632 -79.49980 11120 ft 385 kts 205°
2026-04-20 19:45 -1.41033 -79.51098 10824 ft 375 kts 205°
2026-04-20 19:45 -1.43352 -79.52175 10663 ft 361 kts 205°
2026-04-20 19:45 -1.45589 -79.53214 10548 ft 348 kts 205°
2026-04-20 19:46 -1.47712 -79.54203 10430 ft 335 kts 205°
2026-04-20 19:46 -1.49787 -79.55169 10291 ft 323 kts 205°
2026-04-20 19:46 -1.51784 -79.56099 10195 ft 311 kts 205°
2026-04-20 19:46 -1.53706 -79.56993 10108 ft 298 kts 205°
2026-04-20 19:47 -1.55555 -79.57853 9939 ft 290 kts 205°
2026-04-20 19:47 -1.57405 -79.58714 9583 ft 288 kts 205°
2026-04-20 19:47 -1.59193 -79.59546 9267 ft 286 kts 205°
2026-04-20 19:47 -1.61015 -79.60395 8951 ft 284 kts 205°
2026-04-20 19:48 -1.62780 -79.61216 8644 ft 282 kts 205°
2026-04-20 19:48 -1.64551 -79.62040 8345 ft 280 kts 205°
2026-04-20 19:48 -1.66310 -79.62859 8038 ft 278 kts 205°
2026-04-20 19:48 -1.68060 -79.63673 7737 ft 276 kts 205°
2026-04-20 19:49 -1.69800 -79.64482 7436 ft 274 kts 205°
2026-04-20 19:49 -1.71525 -79.65285 7136 ft 273 kts 205°
2026-04-20 19:49 -1.73242 -79.66084 6849 ft 271 kts 205°
2026-04-20 19:49 -1.74950 -79.66878 6554 ft 269 kts 205°
2026-04-20 19:50 -1.76644 -79.67667 6263 ft 268 kts 205°
2026-04-20 19:50 -1.78331 -79.68452 5973 ft 266 kts 205°
2026-04-20 19:50 -1.80005 -79.69231 5686 ft 265 kts 205°
2026-04-20 19:50 -1.81671 -79.70006 5401 ft 264 kts 205°
2026-04-20 19:51 -1.83331 -79.70779 5114 ft 263 kts 205°
2026-04-20 19:51 -1.84985 -79.71547 4842 ft 262 kts 205°
2026-04-20 19:51 -1.86632 -79.72314 4546 ft 260 kts 206°
2026-04-20 19:51 -1.88274 -79.73079 4265 ft 259 kts 205°
2026-04-20 19:52 -1.89907 -79.73839 3979 ft 258 kts 205°
2026-04-20 19:52 -1.91532 -79.74595 3695 ft 255 kts 205°
2026-04-20 19:52 -1.93121 -79.75356 3547 ft 251 kts 208°
2026-04-20 19:52 -1.94649 -79.76208 3282 ft 254 kts 210°
2026-04-20 19:53 -1.96192 -79.77097 3032 ft 253 kts 211°
2026-04-20 19:53 -1.97676 -79.77956 3005 ft 237 kts 211°
2026-04-20 19:53 -1.99087 -79.78771 2995 ft 232 kts 211°
2026-04-20 19:53 -2.00454 -79.79560 2910 ft 223 kts 210°
2026-04-20 19:54 -2.01792 -79.80333 2792 ft 222 kts 210°
2026-04-20 19:54 -2.03125 -79.81101 2645 ft 220 kts 210°
2026-04-20 19:54 -2.04430 -79.81853 2468 ft 213 kts 210°
2026-04-20 19:54 -2.05685 -79.82577 2154 ft 208 kts 210°
2026-04-20 19:55 -2.06932 -79.83296 1836 ft 199 kts 209°
2026-04-20 19:55 -2.08096 -79.83966 1555 ft 187 kts 209°
2026-04-20 19:55 -2.09183 -79.84592 1306 ft 174 kts 209°
2026-04-20 19:55 -2.10180 -79.85166 1079 ft 163 kts 209°
2026-04-20 19:56 -2.10842 -79.85546 947 ft 162 kts 209°
2026-04-20 19:56 -2.12139 -79.86292 682 ft 162 kts 210°
2026-04-20 19:56 -2.13114 -79.86851 463 ft 161 kts 210°
2026-04-20 19:56 -2.14086 -79.87408 227 ft 161 kts 210°
2026-04-20 19:57 -2.15051 -79.87961 42 ft 156 kts 210°
2026-04-20 19:57 -2.15863 -79.88435 34 ft 109 kts 210°
2026-04-20 19:57 -2.16274 -79.88673 37 ft 30 kts 210°
2026-04-20 19:57 -2.16337 -79.88749 36 ft 13 kts 277°
2026-04-20 19:58 -2.16269 -79.88776 36 ft 13 kts 20°
2026-04-20 19:58 -2.16181 -79.88728 37 ft 16 kts 29°
2026-04-20 19:58 -2.16075 -79.88669 37 ft 19 kts 29°
2026-04-20 19:58 -2.15951 -79.88598 37 ft 22 kts 30°
2026-04-20 19:59 -2.15813 -79.88516 37 ft 24 kts 31°
2026-04-20 19:59 -2.15661 -79.88427 36 ft 26 kts 30°
2026-04-20 19:59 -2.15501 -79.88336 36 ft 21 kts 30°
2026-04-20 19:59 -2.15372 -79.88261 35 ft 18 kts 30°
2026-04-20 20:00 -2.15296 -79.88220 36 ft 9 kts
2026-04-20 20:00 -2.15240 -79.88265 37 ft 12 kts 300°
2026-04-20 20:00 -2.15193 -79.88347 37 ft 15 kts 300°
2026-04-20 20:00 -2.15106 -79.88377 36 ft 16 kts 23°
2026-04-20 20:01 -2.15013 -79.88328 37 ft 9 kts 24°
2026-04-20 20:01 -2.14974 -79.88350 37 ft 8 kts 306°
2026-04-20 20:01 -2.14960 -79.88371 37 ft 3 kts 301°
2026-04-20 20:01 -2.14960 -79.88373 37 ft 0 kts 301°